• In Österreich
  • Länderverzeichnis
  • Für 7 Tage
  • Wassertemperatur
  • Satellitenkarten
  • Wetterkarte
  • News
  • Widgets
  • user-avatar
    Anmelden

    Stündliche Wetter Ali Bajramli

    Heute, 25 Mai, Freitag

    Zeit Temperatur Niederschläge Wind Luftdruck Luftfeuchtigkeit
    00:00 +24°C° 0 mm 1 m/S 755 mmHg 50%
    01:00 +24°C° 0 mm 1 m/S 755 mmHg 50%
    02:00 +23°C° 0 mm 1 m/S 755 mmHg 50%
    03:00 +23°C° 0 mm 1 m/S 755 mmHg 48%
    04:00 +24°C° 0 mm 1 m/S 755 mmHg 47%
    05:00 +24°C° 0 mm 1 m/S 755 mmHg 45%
    06:00 +23°C° 0 mm 0 m/S 755 mmHg 43%
    07:00 +27°C° 0 mm 1 m/S 755 mmHg 39%
    08:00 +28°C° 0 mm 1 m/S 755 mmHg 34%
    09:00 +30°C° 0 mm 1 m/S 755 mmHg 29%
    10:00 +32°C° 0 mm 1 m/S 754 mmHg 26%
    11:00 +33°C° 0 mm 1 m/S 754 mmHg 24%
    12:00 +35°C° 0 mm 2 m/S 754 mmHg 22%
    13:00 +36°C° 0 mm 3 m/S 754 mmHg 21%
    14:00 +36°C° 0 mm 4 m/S 753 mmHg 21%
    15:00 +36°C° 0 mm 4 m/S 753 mmHg 21%
    16:00 +35°C° 0 mm 4 m/S 753 mmHg 23%
    17:00 +34°C° 0 mm 4 m/S 752 mmHg 25%
    18:00 +32°C° 0 mm 4 m/S 752 mmHg 27%
    19:00 +30°C° 0 mm 4 m/S 753 mmHg 30%
    20:00 +28°C° 0 mm 3 m/S 753 mmHg 33%
    21:00 +27°C° 0 mm 2 m/S 753 mmHg 36%
    22:00 +26°C° 0 mm 2 m/S 753 mmHg 38%
    23:00 +26°C° 0 mm 1 m/S 753 mmHg 41%

    Morgen, 26 Mai, Samstag

    Zeit Temperatur Niederschläge Wind Luftdruck Luftfeuchtigkeit
    00:00 +25°C° 0 mm 1 m/S 753 mmHg 44%
    01:00 +25°C° 0 mm 1 m/S 753 mmHg 44%
    02:00 +25°C° 0 mm 1 m/S 753 mmHg 43%
    03:00 +25°C° 0 mm 1 m/S 753 mmHg 43%
    04:00 +25°C° 0 mm 2 m/S 753 mmHg 42%
    05:00 +26°C° 0 mm 2 m/S 753 mmHg 41%
    06:00 +26°C° 0 mm 3 m/S 753 mmHg 40%
    07:00 +28°C° 0 mm 3 m/S 753 mmHg 37%
    08:00 +29°C° 0 mm 2 m/S 754 mmHg 34%
    09:00 +31°C° 0 mm 2 m/S 754 mmHg 31%
    10:00 +32°C° 0 mm 2 m/S 754 mmHg 29%
    11:00 +34°C° 0 mm 2 m/S 754 mmHg 28%
    12:00 +35°C° 0 mm 2 m/S 754 mmHg 26%
    13:00 +35°C° 0 mm 3 m/S 754 mmHg 27%
    14:00 +35°C° 0 mm 4 m/S 754 mmHg 28%
    15:00 +36°C° 0 mm 4 m/S 754 mmHg 28%
    16:00 +35°C° 0 mm 5 m/S 754 mmHg 33%
    17:00 +33°C° 0 mm 6 m/S 754 mmHg 38%
    18:00 +32°C° 0 mm 7 m/S 754 mmHg 44%
    19:00 +30°C° 0 mm 7 m/S 755 mmHg 46%
    20:00 +29°C° 0 mm 7 m/S 756 mmHg 49%
    21:00 +28°C° 0 mm 7 m/S 757 mmHg 51%
    22:00 +27°C° 0,1 mm 7 m/S 757 mmHg 54%
    23:00 +27°C° 0,1 mm 7 m/S 758 mmHg 56%

    übermorgen, 27 Mai, Sonntag

    Zeit Temperatur Niederschläge Wind Luftdruck Luftfeuchtigkeit
    00:00 +26°C° 0,1 mm 7 m/S 758 mmHg 59%
    01:00 +24°C° 0,1 mm 8 m/S 759 mmHg 59%
    02:00 +24°C° 0,1 mm 8 m/S 759 mmHg 60%
    03:00 +23°C° 0,1 mm 9 m/S 760 mmHg 61%
    04:00 +23°C° 0 mm 9 m/S 760 mmHg 58%
    05:00 +23°C° 0 mm 10 m/S 761 mmHg 55%
    06:00 +22°C° 0 mm 10 m/S 762 mmHg 53%
    07:00 +23°C° 0,1 mm 10 m/S 762 mmHg 50%
    08:00 +24°C° 0,1 mm 10 m/S 763 mmHg 48%
    09:00 +26°C° 0,1 mm 10 m/S 764 mmHg 45%
    10:00 +26°C° 0 mm 10 m/S 764 mmHg 45%
    11:00 +26°C° 0 mm 10 m/S 765 mmHg 45%
    12:00 +26°C° 0 mm 10 m/S 765 mmHg 45%
    13:00 +26°C° 0 mm 10 m/S 765 mmHg 44%
    14:00 +24°C° 0 mm 10 m/S 765 mmHg 44%
    15:00 +24°C° 0 mm 10 m/S 765 mmHg 44%
    16:00 +23°C° 0 mm 9 m/S 765 mmHg 45%
    17:00 +22°C° 0 mm 9 m/S 765 mmHg 45%
    18:00 +21°C° 0 mm 8 m/S 765 mmHg 46%
    19:00 +20°C° 0 mm 7 m/S 766 mmHg 47%
    20:00 +20°C° 0 mm 6 m/S 766 mmHg 47%
    21:00 +19°C° 0 mm 4 m/S 766 mmHg 48%
    22:00 +19°C° 0 mm 4 m/S 766 mmHg 49%
    23:00 +19°C° 0 mm 3 m/S 766 mmHg 50%

    28 Mai, Montag

    Zeit Temperatur Niederschläge Wind Luftdruck Luftfeuchtigkeit
    00:00 +18°C° 0 mm 2 m/S 765 mmHg 51%
    01:00 +19°C° 0 mm 1 m/S 765 mmHg 53%
    02:00 +18°C° 0 mm 1 m/S 764 mmHg 55%
    03:00 +18°C° 0 mm 1 m/S 764 mmHg 56%
    04:00 +19°C° 0 mm 1 m/S 764 mmHg 54%
    05:00 +18°C° 0 mm 2 m/S 764 mmHg 52%
    06:00 +19°C° 0 mm 2 m/S 763 mmHg 50%
    07:00 +20°C° 0 mm 2 m/S 763 mmHg 46%
    08:00 +22°C° 0 mm 3 m/S 763 mmHg 42%
    09:00 +24°C° 0 mm 3 m/S 762 mmHg 39%
    10:00 +25°C° 0 mm 3 m/S 762 mmHg 36%
    11:00 +27°C° 0 mm 2 m/S 761 mmHg 34%
    12:00 +28°C° 0 mm 2 m/S 761 mmHg 32%
    13:00 +29°C° 0 mm 2 m/S 760 mmHg 31%
    14:00 +29°C° 0 mm 3 m/S 760 mmHg 31%
    15:00 +30°C° 0 mm 3 m/S 759 mmHg 31%
    16:00 +29°C° 0 mm 3 m/S 759 mmHg 35%
    17:00 +28°C° 0 mm 4 m/S 759 mmHg 40%
    18:00 +27°C° 0 mm 5 m/S 759 mmHg 45%
    19:00 +26°C° 0 mm 4 m/S 760 mmHg 49%
    20:00 +25°C° 0 mm 3 m/S 760 mmHg 54%
    21:00 +24°C° 0 mm 3 m/S 761 mmHg 59%
    22:00 +23°C° 0 mm 2 m/S 761 mmHg 59%
    23:00 +23°C° 0 mm 2 m/S 761 mmHg 60%

    29 Mai, Dienstag

    Zeit Temperatur Niederschläge Wind Luftdruck Luftfeuchtigkeit
    00:00 +23°C° 0 mm 2 m/S 761 mmHg 60%
    01:00 +21°C° 0 mm 2 m/S 761 mmHg 60%
    02:00 +21°C° 0 mm 3 m/S 761 mmHg 59%
    03:00 +21°C° 0 mm 4 m/S 761 mmHg 59%
    04:00 +21°C° 0 mm 5 m/S 761 mmHg 56%
    05:00 +22°C° 0 mm 6 m/S 761 mmHg 54%
    06:00 +22°C° 0 mm 6 m/S 762 mmHg 52%
    07:00 +24°C° 0 mm 7 m/S 762 mmHg 47%
    08:00 +26°C° 0 mm 7 m/S 762 mmHg 42%
    09:00 +27°C° 0 mm 7 m/S 762 mmHg 37%
    10:00 +28°C° 0 mm 7 m/S 762 mmHg 35%
    11:00 +29°C° 0 mm 8 m/S 762 mmHg 33%
    12:00 +29°C° 0 mm 8 m/S 762 mmHg 31%
    13:00 +29°C° 0 mm 8 m/S 762 mmHg 32%
    14:00 +29°C° 0 mm 9 m/S 762 mmHg 34%
    15:00 +28°C° 0 mm 9 m/S 761 mmHg 35%
    16:00 +27°C° 0 mm 9 m/S 762 mmHg 36%
    17:00 +26°C° 0 mm 9 m/S 762 mmHg 37%
    18:00 +24°C° 0 mm 9 m/S 762 mmHg 38%
    19:00 +24°C° 0 mm 8 m/S 762 mmHg 41%
    20:00 +23°C° 0 mm 8 m/S 763 mmHg 44%
    21:00 +22°C° 0 mm 8 m/S 763 mmHg 47%
    22:00 +22°C° 0 mm 7 m/S 763 mmHg 49%
    23:00 +21°C° 0 mm 7 m/S 763 mmHg 52%

    30 Mai, Mittwoch

    Zeit Temperatur Niederschläge Wind Luftdruck Luftfeuchtigkeit
    00:00 +21°C° 0 mm 6 m/S 763 mmHg 54%
    01:00 +20°C° 0 mm 6 m/S 763 mmHg 55%
    02:00 +20°C° 0 mm 6 m/S 763 mmHg 56%
    03:00 +20°C° 0 mm 5 m/S 763 mmHg 57%
    04:00 +20°C° 0 mm 6 m/S 763 mmHg 56%
    05:00 +20°C° 0 mm 6 m/S 763 mmHg 55%
    06:00 +20°C° 0 mm 6 m/S 763 mmHg 54%
    07:00 +22°C° 0 mm 6 m/S 764 mmHg 50%
    08:00 +23°C° 0 mm 6 m/S 764 mmHg 45%
    09:00 +25°C° 0 mm 5 m/S 764 mmHg 41%
    10:00 +26°C° 0 mm 5 m/S 763 mmHg 37%
    11:00 +26°C° 0 mm 5 m/S 763 mmHg 33%
    12:00 +27°C° 0 mm 5 m/S 762 mmHg 30%
    13:00 +27°C° 0 mm 6 m/S 762 mmHg 28%
    14:00 +28°C° 0 mm 6 m/S 762 mmHg 27%
    15:00 +28°C° 0 mm 6 m/S 761 mmHg 26%
    16:00 +27°C° 0 mm 6 m/S 761 mmHg 27%
    17:00 +26°C° 0 mm 6 m/S 761 mmHg 29%
    18:00 +24°C° 0 mm 6 m/S 760 mmHg 30%
    19:00 +23°C° 0 mm 4 m/S 760 mmHg 34%
    20:00 +24°C° 0 mm 3 m/S 761 mmHg 37%
    21:00 +23°C° 0 mm 2 m/S 761 mmHg 41%
    22:00 +21°C° 0 mm 2 m/S 760 mmHg 42%
    23:00 +21°C° 0 mm 2 m/S 760 mmHg 43%
    Mehr zeigen